User: anonymous   Login
Location: Dayton
(39.7590°N, 84.1920°W)
Time: 08:59:25
(UTC-04:00)
Language:

Cosmos 1939 Rocket - Orbit

View from above orbital plane
View from above orbital plane
View from above satellite
View from above satellite

Ground track
Ground track

The orbit data is extracted from the following two-line orbital elements,

1 19046U 88032B   14303.11897755  .00002469  00000-0  20066-3 0   343
2 19046 097.6351 355.2171 0037943 005.0973 355.0629 14.99961997428421
Epoch (UTC): 30 October 2014 02:51:19
Eccentricity: 0.0037943
inclination: 97.6351°
perigee height: 540 km
apogee height: 593 km
right ascension of ascending node: 355.2171°
argument of perigee: 5.0973°
revolutions per day: 14.99961997
mean anomaly at epoch: 355.0629°
orbit number at epoch: 42842

The dashed part of the orbit path shows where the satellite is in the earth's shadow,  

DLR